Year,Month,Day,Hour,Minute,Value (Times are PST for temperature in C)
2009,01,21,00,00,-2.80
2009,01,21,00,01,-2.80
2009,01,21,00,02,-2.80
2009,01,21,00,03,-2.80
2009,01,21,00,04,-2.80
2009,01,21,00,05,-2.80
2009,01,21,00,06,-2.80
2009,01,21,00,07,-2.80
2009,01,21,00,08,-2.70
2009,01,21,00,09,-2.80
2009,01,21,00,10,-2.70
2009,01,21,00,11,-2.70
2009,01,21,00,12,-2.70
2009,01,21,00,13,-2.70
2009,01,21,00,14,-2.70
2009,01,21,00,15,-2.70
2009,01,21,00,16,-2.70
2009,01,21,00,17,-2.70
2009,01,21,00,18,-2.70
2009,01,21,00,19,-2.70
2009,01,21,00,20,-2.70
2009,01,21,00,21,-2.70
2009,01,21,00,22,-2.70
2009,01,21,00,23,-2.70
2009,01,21,00,24,-2.70
2009,01,21,00,25,-2.70
2009,01,21,00,26,-2.70
2009,01,21,00,27,-2.70
2009,01,21,00,28,-2.70
2009,01,21,00,29,-2.70
2009,01,21,00,30,-2.70
2009,01,21,00,31,-2.70
2009,01,21,00,32,-2.70
2009,01,21,00,33,-2.70
2009,01,21,00,34,-2.70
2009,01,21,00,35,-2.60
2009,01,21,00,36,-2.60
2009,01,21,00,37,-2.60
2009,01,21,00,38,-2.60
2009,01,21,00,39,-2.60
2009,01,21,00,40,-2.60
2009,01,21,00,41,-2.60
2009,01,21,00,42,-2.60
2009,01,21,00,43,-2.60
2009,01,21,00,44,-2.60
2009,01,21,00,45,-2.60
2009,01,21,00,46,-2.50
2009,01,21,00,47,-2.60
2009,01,21,00,48,-2.60
2009,01,21,00,49,-2.60
2009,01,21,00,50,-2.60
2009,01,21,00,51,-2.60
2009,01,21,00,52,-2.60
2009,01,21,00,53,-2.60
2009,01,21,00,54,-2.60
2009,01,21,00,55,-2.60
2009,01,21,00,56,-2.60
2009,01,21,00,57,-2.70
2009,01,21,00,58,-2.70
2009,01,21,00,59,-2.70
2009,01,21,01,00,-2.70
2009,01,21,01,01,-2.70
2009,01,21,01,02,-2.70
2009,01,21,01,03,-2.70
2009,01,21,01,04,-2.70
2009,01,21,01,05,-2.70
2009,01,21,01,06,-2.70
2009,01,21,01,07,-2.80
2009,01,21,01,08,-2.80
2009,01,21,01,09,-2.80
2009,01,21,01,10,-2.80
2009,01,21,01,11,-2.80
2009,01,21,01,12,-2.80
2009,01,21,01,13,-2.80
2009,01,21,01,14,-2.80
2009,01,21,01,15,-2.90
2009,01,21,01,16,-2.90
2009,01,21,01,17,-2.90
2009,01,21,01,18,-2.90
2009,01,21,01,19,-2.90
2009,01,21,01,20,-2.90
2009,01,21,01,21,-2.90
2009,01,21,01,22,-2.90
2009,01,21,01,23,-2.90
2009,01,21,01,24,-2.90
2009,01,21,01,25,-2.90
2009,01,21,01,26,-2.90
2009,01,21,01,27,-2.90
2009,01,21,01,28,-3.00
2009,01,21,01,29,-2.90
2009,01,21,01,30,-2.90
2009,01,21,01,31,-2.90
2009,01,21,01,32,-2.90
2009,01,21,01,33,-2.90
2009,01,21,01,34,-2.90
2009,01,21,01,35,-2.90
2009,01,21,01,36,-2.90
2009,01,21,01,37,-2.90
2009,01,21,01,38,-2.90
2009,01,21,01,39,-2.90
2009,01,21,01,40,-2.90
2009,01,21,01,41,-2.90
2009,01,21,01,42,-2.90
2009,01,21,01,43,-2.90
2009,01,21,01,44,-2.90
2009,01,21,01,45,-2.90
2009,01,21,01,46,-2.90
2009,01,21,01,47,-2.90
2009,01,21,01,48,-2.90
2009,01,21,01,49,-2.90
2009,01,21,01,50,-2.90
2009,01,21,01,51,-2.90
2009,01,21,01,52,-2.90
2009,01,21,01,53,-2.90
2009,01,21,01,54,-2.90
2009,01,21,01,55,-3.00
2009,01,21,01,56,-3.00
2009,01,21,01,57,-3.00
2009,01,21,01,58,-3.00
2009,01,21,01,59,-3.00
2009,01,21,02,00,-3.00
2009,01,21,02,01,-3.00
2009,01,21,02,02,-3.00
2009,01,21,02,03,-3.00
2009,01,21,02,04,-3.00
2009,01,21,02,05,-3.00
2009,01,21,02,06,-3.00
2009,01,21,02,07,-3.00
2009,01,21,02,08,-3.00
2009,01,21,02,09,-3.00
2009,01,21,02,10,-3.00
2009,01,21,02,11,-3.00
2009,01,21,02,12,-3.00
2009,01,21,02,13,-3.00
2009,01,21,02,14,-3.00
2009,01,21,02,15,-3.10
2009,01,21,02,16,-3.00
2009,01,21,02,17,-3.00
2009,01,21,02,18,-3.10
2009,01,21,02,19,-3.00
2009,01,21,02,20,-3.00
2009,01,21,02,21,-3.00
2009,01,21,02,22,-3.00
2009,01,21,02,23,-3.00
2009,01,21,02,24,-2.90
2009,01,21,02,25,-2.90
2009,01,21,02,26,-3.00
2009,01,21,02,27,-3.00
2009,01,21,02,28,-3.00
2009,01,21,02,29,-3.00
2009,01,21,02,30,-3.00
2009,01,21,02,31,-3.00
2009,01,21,02,32,-3.00
2009,01,21,02,33,-2.90
2009,01,21,02,34,-2.90
2009,01,21,02,35,-2.90
2009,01,21,02,36,-2.90
2009,01,21,02,37,-2.90
2009,01,21,02,38,-2.90
2009,01,21,02,39,-2.90
2009,01,21,02,40,-2.90
2009,01,21,02,41,-2.90
2009,01,21,02,42,-2.90
2009,01,21,02,43,-2.90
2009,01,21,02,44,-2.90
2009,01,21,02,45,-2.90
2009,01,21,02,46,-2.90
2009,01,21,02,47,-2.90
2009,01,21,02,48,-2.90
2009,01,21,02,49,-2.90
2009,01,21,02,50,-2.90
2009,01,21,02,51,-2.90
2009,01,21,02,52,-2.90
2009,01,21,02,53,-2.90
2009,01,21,02,54,-2.90
2009,01,21,02,55,-3.00
2009,01,21,02,56,-3.00
2009,01,21,02,57,-3.00
2009,01,21,02,58,-3.10
2009,01,21,02,59,-3.10
2009,01,21,03,00,-3.00
2009,01,21,03,01,-3.00
2009,01,21,03,02,-3.00
2009,01,21,03,03,-3.00
2009,01,21,03,04,-3.00
2009,01,21,03,05,-3.00
2009,01,21,03,06,-3.00
2009,01,21,03,07,-3.00
2009,01,21,03,08,-3.00
2009,01,21,03,09,-3.00
2009,01,21,03,10,-3.00
2009,01,21,03,11,-3.00
2009,01,21,03,12,-3.00
2009,01,21,03,13,-3.00
2009,01,21,03,14,-3.10
2009,01,21,03,15,-3.10
2009,01,21,03,16,-3.10
2009,01,21,03,17,-3.10
2009,01,21,03,18,-3.10
2009,01,21,03,19,-3.10
2009,01,21,03,20,-3.10
2009,01,21,03,21,-3.10
2009,01,21,03,22,-3.10
2009,01,21,03,23,-3.00
2009,01,21,03,24,-3.00
2009,01,21,03,25,-3.00
2009,01,21,03,26,-3.00
2009,01,21,03,27,-3.00
2009,01,21,03,28,-3.00
2009,01,21,03,29,-3.00
2009,01,21,03,30,-3.00
2009,01,21,03,31,-3.00
2009,01,21,03,32,-3.00
2009,01,21,03,33,-3.00
2009,01,21,03,34,-3.00
2009,01,21,03,35,-3.00
2009,01,21,03,36,-3.00
2009,01,21,03,37,-3.00
2009,01,21,03,38,-3.00
2009,01,21,03,39,-3.00
2009,01,21,03,40,-3.00
2009,01,21,03,41,-3.00
2009,01,21,03,42,-3.10
2009,01,21,03,43,-3.10
2009,01,21,03,44,-3.10
2009,01,21,03,45,-3.10
2009,01,21,03,46,-3.10
2009,01,21,03,47,-3.10
2009,01,21,03,48,-3.10
2009,01,21,03,49,-3.10
2009,01,21,03,50,-3.10
2009,01,21,03,51,-3.10
2009,01,21,03,52,-3.10
2009,01,21,03,53,-3.10
2009,01,21,03,54,-3.10
2009,01,21,03,55,-3.10
2009,01,21,03,56,-3.10
2009,01,21,03,57,-3.10
2009,01,21,03,58,-3.10
2009,01,21,03,59,-3.10
2009,01,21,04,00,-3.10
2009,01,21,04,01,-3.10
2009,01,21,04,02,-3.10
2009,01,21,04,03,-3.10
2009,01,21,04,04,-3.10
2009,01,21,04,05,-3.10
2009,01,21,04,06,-3.10
2009,01,21,04,07,-3.10
2009,01,21,04,08,-3.10
2009,01,21,04,09,-3.10
2009,01,21,04,10,-3.10
2009,01,21,04,11,-3.10
2009,01,21,04,12,-3.10
2009,01,21,04,13,-3.10
2009,01,21,04,14,-3.10
2009,01,21,04,15,-3.10
2009,01,21,04,16,-3.10
2009,01,21,04,17,-3.10
2009,01,21,04,18,-3.00
2009,01,21,04,19,-3.00
2009,01,21,04,20,-3.00
2009,01,21,04,21,-3.00
2009,01,21,04,22,-2.90
2009,01,21,04,23,-2.90
2009,01,21,04,24,-2.90
2009,01,21,04,25,-2.90
2009,01,21,04,26,-2.90
2009,01,21,04,27,-2.90
2009,01,21,04,28,-2.90
2009,01,21,04,29,-2.90
2009,01,21,04,30,-2.90
2009,01,21,04,31,-2.90
2009,01,21,04,32,-2.90
2009,01,21,04,33,-2.90
2009,01,21,04,34,-3.00
2009,01,21,04,35,-3.00
2009,01,21,04,36,-3.00
2009,01,21,04,37,-3.00
2009,01,21,04,38,-3.10
2009,01,21,04,39,-3.10
2009,01,21,04,40,-3.20
2009,01,21,04,41,-3.20
2009,01,21,04,42,-3.20
2009,01,21,04,43,-3.30
2009,01,21,04,44,-3.30
2009,01,21,04,45,-3.30
2009,01,21,04,46,-3.40
2009,01,21,04,47,-3.40
2009,01,21,04,48,-3.50
2009,01,21,04,49,-3.50
2009,01,21,04,50,-3.50
2009,01,21,04,51,-3.50
2009,01,21,04,52,-3.60
2009,01,21,04,53,-3.60
2009,01,21,04,54,-3.60
2009,01,21,04,55,-3.60
2009,01,21,04,56,-3.60
2009,01,21,04,57,-3.60
2009,01,21,04,58,-3.60
2009,01,21,04,59,-3.60
2009,01,21,05,00,-3.60
2009,01,21,05,01,-3.60
2009,01,21,05,02,-3.60
2009,01,21,05,03,-3.60
2009,01,21,05,04,-3.60
2009,01,21,05,05,-3.60
2009,01,21,05,06,-3.60
2009,01,21,05,07,-3.60
2009,01,21,05,08,-3.60
2009,01,21,05,09,-3.60
2009,01,21,05,10,-3.60
2009,01,21,05,11,-3.60
2009,01,21,05,12,-3.60
2009,01,21,05,13,-3.60
2009,01,21,05,14,-3.60
2009,01,21,05,15,-3.60
2009,01,21,05,16,-3.60
2009,01,21,05,17,-3.50
2009,01,21,05,18,-3.50
2009,01,21,05,19,-3.50
2009,01,21,05,20,-3.50
2009,01,21,05,21,-3.40
2009,01,21,05,22,-3.40
2009,01,21,05,23,-3.40
2009,01,21,05,24,-3.40
2009,01,21,05,25,-3.40
2009,01,21,05,26,-3.50
2009,01,21,05,27,-3.50
2009,01,21,05,28,-3.50
2009,01,21,05,29,-3.50
2009,01,21,05,30,-3.50
2009,01,21,05,31,-3.50
2009,01,21,05,32,-3.40
2009,01,21,05,33,-3.40
2009,01,21,05,34,-3.40
2009,01,21,05,35,-3.40
2009,01,21,05,36,-3.40
2009,01,21,05,37,-3.40
2009,01,21,05,38,-3.40
2009,01,21,05,39,-3.30
2009,01,21,05,40,-3.30
2009,01,21,05,41,-3.30
2009,01,21,05,42,-3.30
2009,01,21,05,43,-3.30
2009,01,21,05,44,-3.30
2009,01,21,05,45,-3.30
2009,01,21,05,46,-3.30
2009,01,21,05,47,-3.30
2009,01,21,05,48,-3.30
2009,01,21,05,49,-3.20
2009,01,21,05,50,-3.20
2009,01,21,05,51,-3.20
2009,01,21,05,52,-3.20
2009,01,21,05,53,-3.20
2009,01,21,05,54,-3.20
2009,01,21,05,55,-3.20
2009,01,21,05,56,-3.20
2009,01,21,05,57,-3.20
2009,01,21,05,58,-3.20
2009,01,21,05,59,-3.20
2009,01,21,06,00,-3.20
2009,01,21,06,01,-3.20
2009,01,21,06,02,-3.20
2009,01,21,06,03,-3.20
2009,01,21,06,04,-3.20
2009,01,21,06,05,-3.10
2009,01,21,06,06,-3.10
2009,01,21,06,07,-3.10
2009,01,21,06,08,-3.10
2009,01,21,06,09,-3.10
2009,01,21,06,10,-3.20
2009,01,21,06,11,-3.20
2009,01,21,06,12,-3.20
2009,01,21,06,13,-3.10
2009,01,21,06,14,-3.10
2009,01,21,06,15,-3.10
2009,01,21,06,16,-3.10
2009,01,21,06,17,-3.10
2009,01,21,06,18,-3.10
2009,01,21,06,19,-3.10
2009,01,21,06,20,-3.00
2009,01,21,06,21,-3.00
2009,01,21,06,22,-3.00
2009,01,21,06,23,-3.00
2009,01,21,06,24,-3.00
2009,01,21,06,25,-3.00
2009,01,21,06,26,-2.90
2009,01,21,06,27,-2.90
2009,01,21,06,28,-2.90
2009,01,21,06,29,-2.90
2009,01,21,06,30,-2.90
2009,01,21,06,31,-2.90
2009,01,21,06,32,-2.90
2009,01,21,06,33,-2.90
2009,01,21,06,34,-2.90
2009,01,21,06,35,-2.90
2009,01,21,06,36,-2.90
2009,01,21,06,37,-2.90
2009,01,21,06,38,-2.90
2009,01,21,06,39,-2.90
2009,01,21,06,40,-2.90
2009,01,21,06,41,-2.90
2009,01,21,06,42,-2.90
2009,01,21,06,43,-2.90
2009,01,21,06,44,-2.90
2009,01,21,06,45,-2.90
2009,01,21,06,46,-2.80
2009,01,21,06,47,-2.80
2009,01,21,06,48,-2.80
2009,01,21,06,49,-2.80
2009,01,21,06,50,-2.80
2009,01,21,06,51,-2.90
2009,01,21,06,52,-2.90
2009,01,21,06,53,-2.80
2009,01,21,06,54,-2.80
2009,01,21,06,55,-2.80
2009,01,21,06,56,-2.70
2009,01,21,06,57,-2.70
2009,01,21,06,58,-2.70
2009,01,21,06,59,-2.70
2009,01,21,07,00,-2.60
2009,01,21,07,01,-2.60
2009,01,21,07,02,-2.60
2009,01,21,07,03,-2.60
2009,01,21,07,04,-2.50
2009,01,21,07,05,-2.40
2009,01,21,07,06,-2.40
2009,01,21,07,07,-2.40
2009,01,21,07,08,-2.40
2009,01,21,07,09,-2.40
2009,01,21,07,10,-2.50
2009,01,21,07,11,-2.50
2009,01,21,07,12,-2.60
2009,01,21,07,13,-2.60
2009,01,21,07,14,-2.60
2009,01,21,07,15,-2.60
2009,01,21,07,16,-2.60
2009,01,21,07,17,-2.70
2009,01,21,07,18,-2.70
2009,01,21,07,19,-2.60
2009,01,21,07,20,-2.60
2009,01,21,07,21,-2.60
2009,01,21,07,22,-2.60
2009,01,21,07,23,-2.60
2009,01,21,07,24,-2.60
2009,01,21,07,25,-2.60
2009,01,21,07,26,-2.60
2009,01,21,07,27,-2.50
2009,01,21,07,28,-2.60
2009,01,21,07,29,-2.60
2009,01,21,07,30,-2.60
2009,01,21,07,31,-2.60
2009,01,21,07,32,-2.60
2009,01,21,07,33,-2.60
2009,01,21,07,34,-2.60
2009,01,21,07,35,-2.60
2009,01,21,07,36,-2.60
2009,01,21,07,37,-2.60
2009,01,21,07,38,-2.60
2009,01,21,07,39,-2.60
2009,01,21,07,40,-2.60
2009,01,21,07,41,-2.50
2009,01,21,07,42,-2.50
2009,01,21,07,43,-2.50
2009,01,21,07,44,-2.50
2009,01,21,07,45,-2.50
2009,01,21,07,46,-2.50
2009,01,21,07,47,-2.50
2009,01,21,07,48,-2.60
2009,01,21,07,49,-2.60
2009,01,21,07,50,-2.60
2009,01,21,07,51,-2.70
2009,01,21,07,52,-2.70
2009,01,21,07,53,-2.60
2009,01,21,07,54,-2.60
2009,01,21,07,55,-2.60
2009,01,21,07,56,-2.60
2009,01,21,07,57,-2.70
2009,01,21,07,58,-2.60
2009,01,21,07,59,-2.60
2009,01,21,08,00,-2.60
2009,01,21,08,01,-2.60
2009,01,21,08,02,-2.60
2009,01,21,08,03,-2.60
2009,01,21,08,04,-2.60
2009,01,21,08,05,-2.60
2009,01,21,08,06,-2.60
2009,01,21,08,07,-2.60
2009,01,21,08,08,-2.60
2009,01,21,08,09,-2.60
2009,01,21,08,10,-2.60
2009,01,21,08,11,-2.50
2009,01,21,08,12,-2.50
2009,01,21,08,13,-2.40
2009,01,21,08,14,-2.40
2009,01,21,08,15,-2.40
2009,01,21,08,16,-2.40
2009,01,21,08,17,-2.50
2009,01,21,08,18,-2.50
2009,01,21,08,19,-2.50
2009,01,21,08,20,-2.40
2009,01,21,08,21,-2.40
2009,01,21,08,22,-2.40
2009,01,21,08,23,-2.30
2009,01,21,08,24,-2.30
2009,01,21,08,25,-2.30
2009,01,21,08,26,-2.30
2009,01,21,08,27,-2.20
2009,01,21,08,28,-2.20
2009,01,21,08,29,-2.20
2009,01,21,08,30,-2.20
2009,01,21,08,31,-2.20
2009,01,21,08,32,-2.20
2009,01,21,08,33,-2.20
2009,01,21,08,34,-2.20
2009,01,21,08,35,-2.20
2009,01,21,08,36,-2.20
2009,01,21,08,37,-2.20
2009,01,21,08,38,-2.20
2009,01,21,08,39,-2.20
2009,01,21,08,40,-2.20
2009,01,21,08,41,-2.20
2009,01,21,08,42,-2.10
2009,01,21,08,43,-2.10
2009,01,21,08,44,-2.10
2009,01,21,08,45,-2.20
2009,01,21,08,46,-2.20
2009,01,21,08,47,-2.30
2009,01,21,08,48,-2.30
2009,01,21,08,49,-2.30
2009,01,21,08,50,-2.20
2009,01,21,08,51,-2.20
2009,01,21,08,52,-2.20
2009,01,21,08,53,-2.20
2009,01,21,08,54,-2.10
2009,01,21,08,55,-2.10
2009,01,21,08,56,-2.10
2009,01,21,08,57,-2.10
2009,01,21,08,58,-2.10
2009,01,21,08,59,-2.10
2009,01,21,09,00,-2.10
2009,01,21,09,01,-2.10
2009,01,21,09,02,-2.10
2009,01,21,09,03,-2.20
2009,01,21,09,04,-2.20
2009,01,21,09,05,-2.20
2009,01,21,09,06,-2.20
2009,01,21,09,07,-2.20
2009,01,21,09,08,-2.20
2009,01,21,09,09,-2.20
2009,01,21,09,10,-2.10
2009,01,21,09,11,-2.10
2009,01,21,09,12,-2.00
2009,01,21,09,13,-1.90
2009,01,21,09,14,-1.90
2009,01,21,09,15,-1.90
2009,01,21,09,16,-2.00
2009,01,21,09,17,-1.90
2009,01,21,09,18,-1.80
2009,01,21,09,19,-1.80
2009,01,21,09,20,-1.70
2009,01,21,09,21,-1.70
2009,01,21,09,22,-1.70
2009,01,21,09,23,-1.60
2009,01,21,09,24,-1.60
2009,01,21,09,25,-1.60
2009,01,21,09,26,-1.60
2009,01,21,09,27,-1.70
2009,01,21,09,28,-1.70
2009,01,21,09,29,-1.70
2009,01,21,09,30,-1.80
2009,01,21,09,31,-1.80
2009,01,21,09,32,-1.80
2009,01,21,09,33,-1.80
2009,01,21,09,34,-1.80
2009,01,21,09,35,-1.80
2009,01,21,09,36,-1.80
2009,01,21,09,37,-1.70
2009,01,21,09,38,-1.70
2009,01,21,09,39,-1.70
2009,01,21,09,40,-1.70
2009,01,21,09,41,-1.70
2009,01,21,09,42,-1.80
2009,01,21,09,43,-1.80
2009,01,21,09,44,-1.70
2009,01,21,09,45,-1.70
2009,01,21,09,46,-1.70
2009,01,21,09,47,-1.60
2009,01,21,09,48,-1.60
2009,01,21,09,49,-1.50
2009,01,21,09,50,-1.50
2009,01,21,09,51,-1.40
2009,01,21,09,52,-1.40
2009,01,21,09,53,-1.40
2009,01,21,09,54,-1.40
2009,01,21,09,55,-1.40
2009,01,21,09,56,-1.30
2009,01,21,09,57,-1.30
2009,01,21,09,58,-1.20
2009,01,21,09,59,-1.20
2009,01,21,10,00,-1.20
2009,01,21,10,01,-1.20
2009,01,21,10,02,-1.30
2009,01,21,10,03,-1.30
2009,01,21,10,04,-1.30
2009,01,21,10,05,-1.30
2009,01,21,10,06,-1.20
2009,01,21,10,07,-1.20
2009,01,21,10,08,-1.10
2009,01,21,10,09,-1.00
2009,01,21,10,10,-0.90
2009,01,21,10,11,-0.90
2009,01,21,10,12,-0.90
2009,01,21,10,13,-1.00
2009,01,21,10,14,-1.10
2009,01,21,10,15,-1.10
2009,01,21,10,16,-1.10
2009,01,21,10,17,-1.00
2009,01,21,10,18,-1.00
2009,01,21,10,19,-1.00
2009,01,21,10,20,-1.00
2009,01,21,10,21,-1.00
2009,01,21,10,22,-0.90
2009,01,21,10,23,-0.90
2009,01,21,10,24,-0.90
2009,01,21,10,25,-0.90
2009,01,21,10,26,-0.90
2009,01,21,10,27,-0.90
2009,01,21,10,28,-0.90
2009,01,21,10,29,-0.90
2009,01,21,10,30,-0.90
2009,01,21,10,31,-0.90
2009,01,21,10,32,-0.90
2009,01,21,10,33,-0.90
2009,01,21,10,34,-0.80
2009,01,21,10,35,-0.80
2009,01,21,10,36,-0.70
2009,01,21,10,37,-0.70
2009,01,21,10,38,-0.60
2009,01,21,10,39,-0.70
2009,01,21,10,40,-0.60
2009,01,21,10,41,-0.60
2009,01,21,10,42,-0.60
2009,01,21,10,43,-0.50
2009,01,21,10,44,-0.50
2009,01,21,10,45,-0.40
2009,01,21,10,46,-0.40
2009,01,21,10,47,-0.40
2009,01,21,10,48,-0.40
2009,01,21,10,49,-0.40
2009,01,21,10,50,-0.30
2009,01,21,10,51,-0.30
2009,01,21,10,52,-0.30
2009,01,21,10,53,-0.30
2009,01,21,10,54,-0.30
2009,01,21,10,55,-0.30
2009,01,21,10,56,-0.30
2009,01,21,10,57,-0.30
2009,01,21,10,58,-0.30
2009,01,21,10,59,-0.30
2009,01,21,11,00,-0.30
2009,01,21,11,01,-0.30
2009,01,21,11,02,-0.30
2009,01,21,11,03,-0.30
2009,01,21,11,04,-0.30
2009,01,21,11,05,-0.30
2009,01,21,11,06,-0.20
2009,01,21,11,07,-0.20
2009,01,21,11,08,-0.20
2009,01,21,11,09,-0.20
2009,01,21,11,10,-0.20
2009,01,21,11,11,-0.20
2009,01,21,11,12,-0.20
2009,01,21,11,13,-0.20
2009,01,21,11,14,-0.20
2009,01,21,11,15,-0.20
2009,01,21,11,16,-0.20
2009,01,21,11,17,-0.20
2009,01,21,11,18,-0.20
2009,01,21,11,19,-0.20
2009,01,21,11,20,-0.20
2009,01,21,11,21,-0.20
2009,01,21,11,22,-0.20
2009,01,21,11,23,-0.10
2009,01,21,11,24,-0.10
2009,01,21,11,25,-0.10
2009,01,21,11,26,-0.10
2009,01,21,11,27,-0.10
2009,01,21,11,28,-0.10
2009,01,21,11,29,-0.10
2009,01,21,11,30,-0.10
2009,01,21,11,31,-0.10
2009,01,21,11,32,-0.10
2009,01,21,11,33,-0.10
2009,01,21,11,34,-0.10
2009,01,21,11,35,-0.10
2009,01,21,11,36,-0.10
2009,01,21,11,37,-0.10
2009,01,21,11,38,-0.10
2009,01,21,11,39,-0.10
2009,01,21,11,40,-0.10
2009,01,21,11,41,-0.10
2009,01,21,11,42,0.00
2009,01,21,11,43,0.00
2009,01,21,11,44,0.10
2009,01,21,11,45,0.10
2009,01,21,11,46,0.20
2009,01,21,11,47,0.20
2009,01,21,11,48,0.30
2009,01,21,11,49,0.30
2009,01,21,11,50,0.30
2009,01,21,11,51,0.30
2009,01,21,11,52,0.40
2009,01,21,11,53,0.40
2009,01,21,11,54,0.30
2009,01,21,11,55,0.30
2009,01,21,11,56,0.30
2009,01,21,11,57,0.30
2009,01,21,11,58,0.30
2009,01,21,11,59,0.30
2009,01,21,12,00,0.30
2009,01,21,12,01,0.30
2009,01,21,12,02,0.30
2009,01,21,12,03,0.30
2009,01,21,12,04,0.30
2009,01,21,12,05,0.40
2009,01,21,12,06,0.40
2009,01,21,12,07,0.40
2009,01,21,12,08,0.40
2009,01,21,12,09,0.40
2009,01,21,12,10,0.40
2009,01,21,12,11,0.30
2009,01,21,12,12,0.30
2009,01,21,12,13,0.30
2009,01,21,12,14,0.30
2009,01,21,12,15,0.20
2009,01,21,12,16,0.30
2009,01,21,12,17,0.30
2009,01,21,12,18,0.20
2009,01,21,12,19,0.20
2009,01,21,12,20,0.20
2009,01,21,12,21,0.20
2009,01,21,12,22,0.20
2009,01,21,12,23,0.20
2009,01,21,12,24,0.20
2009,01,21,12,25,0.20
2009,01,21,12,26,0.10
2009,01,21,12,27,0.10
2009,01,21,12,28,0.10
2009,01,21,12,29,0.10
2009,01,21,12,30,0.10
2009,01,21,12,31,0.00
2009,01,21,12,32,0.00
2009,01,21,12,33,0.00
2009,01,21,12,34,0.00
2009,01,21,12,35,0.10
2009,01,21,12,36,0.10
2009,01,21,12,37,0.10
2009,01,21,12,38,0.10
2009,01,21,12,39,0.10
2009,01,21,12,40,0.10
2009,01,21,12,41,0.10
2009,01,21,12,42,0.10
2009,01,21,12,43,0.10
2009,01,21,12,44,0.00
2009,01,21,12,45,0.00
2009,01,21,12,46,-0.10
2009,01,21,12,47,-0.10
2009,01,21,12,48,-0.10
2009,01,21,12,49,-0.10
2009,01,21,12,50,-0.10
2009,01,21,12,51,-0.10
2009,01,21,12,52,0.00
2009,01,21,12,53,0.00
2009,01,21,12,54,0.10
2009,01,21,12,55,0.10
2009,01,21,12,56,0.20
2009,01,21,12,57,0.20
2009,01,21,12,58,0.20
2009,01,21,12,59,0.20
2009,01,21,13,00,0.30
2009,01,21,13,01,0.40
2009,01,21,13,02,0.50
2009,01,21,13,03,0.50
2009,01,21,13,04,0.60
2009,01,21,13,05,0.70
2009,01,21,13,06,0.70
2009,01,21,13,07,0.70
2009,01,21,13,08,0.70
2009,01,21,13,09,0.60
2009,01,21,13,10,0.50
2009,01,21,13,11,0.40
2009,01,21,13,12,0.40
2009,01,21,13,13,0.30
2009,01,21,13,14,0.30
2009,01,21,13,15,0.20
2009,01,21,13,16,0.20
2009,01,21,13,17,0.20
2009,01,21,13,18,0.20
2009,01,21,13,19,0.20
2009,01,21,13,20,0.20
2009,01,21,13,21,0.20
2009,01,21,13,22,0.20
2009,01,21,13,23,0.20
2009,01,21,13,24,0.20
2009,01,21,13,25,0.20
2009,01,21,13,26,0.20
2009,01,21,13,27,0.20
2009,01,21,13,28,0.10
2009,01,21,13,29,0.10
2009,01,21,13,30,0.10
2009,01,21,13,31,0.10
2009,01,21,13,32,0.00
2009,01,21,13,33,0.00
2009,01,21,13,34,0.10
2009,01,21,13,35,0.10
2009,01,21,13,36,0.10
2009,01,21,13,37,0.10
2009,01,21,13,38,0.10
2009,01,21,13,39,0.10
2009,01,21,13,40,0.00
2009,01,21,13,41,0.00
2009,01,21,13,42,0.00
2009,01,21,13,43,0.00
2009,01,21,13,44,0.00
2009,01,21,13,45,-0.10
2009,01,21,13,46,-0.10
2009,01,21,13,47,-0.10
2009,01,21,13,48,-0.10
2009,01,21,13,49,-0.10
2009,01,21,13,50,0.00
2009,01,21,13,51,-0.10
2009,01,21,13,52,-0.10
2009,01,21,13,53,0.00
2009,01,21,13,54,0.00
2009,01,21,13,55,0.00
2009,01,21,13,56,0.10
2009,01,21,13,57,0.10
2009,01,21,13,58,0.10
2009,01,21,13,59,0.10
2009,01,21,14,00,0.20
2009,01,21,14,01,0.20
2009,01,21,14,02,0.20
2009,01,21,14,03,0.20
2009,01,21,14,04,0.20
2009,01,21,14,05,0.20
2009,01,21,14,06,0.20
2009,01,21,14,07,0.20
2009,01,21,14,08,0.20
2009,01,21,14,09,0.20
2009,01,21,14,10,0.20
2009,01,21,14,11,0.20
2009,01,21,14,12,0.20
2009,01,21,14,13,0.10
2009,01,21,14,14,0.10
2009,01,21,14,15,0.00
2009,01,21,14,16,0.00
2009,01,21,14,17,-0.10
2009,01,21,14,18,-0.10
2009,01,21,14,19,-0.10
2009,01,21,14,20,-0.10
2009,01,21,14,21,-0.10
2009,01,21,14,22,-0.10
2009,01,21,14,23,-0.10
2009,01,21,14,24,-0.10
2009,01,21,14,25,-0.10
2009,01,21,14,26,-0.10
2009,01,21,14,27,-0.10
2009,01,21,14,28,-0.10
2009,01,21,14,29,-0.10
2009,01,21,14,30,0.00
2009,01,21,14,31,0.00
2009,01,21,14,32,0.00
2009,01,21,14,33,0.00
2009,01,21,14,34,0.10
2009,01,21,14,35,0.20
2009,01,21,14,36,0.30
2009,01,21,14,37,0.30
2009,01,21,14,38,0.30
2009,01,21,14,39,0.30
2009,01,21,14,40,0.30
2009,01,21,14,41,0.30
2009,01,21,14,42,0.40
2009,01,21,14,43,0.40
2009,01,21,14,44,0.40
2009,01,21,14,45,0.30
2009,01,21,14,46,0.30
2009,01,21,14,47,0.30
2009,01,21,14,48,0.30
2009,01,21,14,49,0.30
2009,01,21,14,50,0.30
2009,01,21,14,51,0.30
2009,01,21,14,52,0.30
2009,01,21,14,53,0.30
2009,01,21,14,54,0.30
2009,01,21,14,55,0.30
2009,01,21,14,56,0.20
2009,01,21,14,57,0.10
2009,01,21,14,58,0.10
2009,01,21,14,59,0.00
2009,01,21,15,00,0.00
2009,01,21,15,01,-0.10
2009,01,21,15,02,-0.10
2009,01,21,15,03,-0.10
2009,01,21,15,04,-0.10
2009,01,21,15,05,-0.10
2009,01,21,15,06,-0.10
2009,01,21,15,07,-0.10
2009,01,21,15,08,0.00
2009,01,21,15,09,0.00
2009,01,21,15,10,0.00
2009,01,21,15,11,0.00
2009,01,21,15,12,0.00
2009,01,21,15,13,0.10
2009,01,21,15,14,0.10
2009,01,21,15,15,0.20
2009,01,21,15,16,0.20
2009,01,21,15,17,0.20
2009,01,21,15,18,0.20
2009,01,21,15,19,0.20
2009,01,21,15,20,0.20
2009,01,21,15,21,0.20
2009,01,21,15,22,0.10
2009,01,21,15,23,0.10
2009,01,21,15,24,0.10
2009,01,21,15,25,0.10
2009,01,21,15,26,0.10
2009,01,21,15,27,0.20
2009,01,21,15,28,0.20
2009,01,21,15,29,0.20
2009,01,21,15,30,0.20
2009,01,21,15,31,0.20
2009,01,21,15,32,0.20
2009,01,21,15,33,0.20
2009,01,21,15,34,0.10
2009,01,21,15,35,0.10
2009,01,21,15,36,0.10
2009,01,21,15,37,0.10
2009,01,21,15,38,0.10
2009,01,21,15,39,0.10
2009,01,21,15,40,0.20
2009,01,21,15,41,0.20
2009,01,21,15,42,0.20
2009,01,21,15,43,0.30
2009,01,21,15,44,0.30
2009,01,21,15,45,0.30
2009,01,21,15,46,0.30
2009,01,21,15,47,0.30
2009,01,21,15,48,0.30
2009,01,21,15,49,0.30
2009,01,21,15,50,0.30
2009,01,21,15,51,0.30
2009,01,21,15,52,0.30
2009,01,21,15,53,0.30
2009,01,21,15,54,0.20
2009,01,21,15,55,0.20
2009,01,21,15,56,0.10
2009,01,21,15,57,0.10
2009,01,21,15,58,0.10
2009,01,21,15,59,0.10
2009,01,21,16,00,0.10
2009,01,21,16,01,0.20
2009,01,21,16,02,0.20
2009,01,21,16,03,0.20
2009,01,21,16,04,0.20
2009,01,21,16,05,0.20
2009,01,21,16,06,0.10
2009,01,21,16,07,0.10
2009,01,21,16,08,0.10
2009,01,21,16,09,0.00
2009,01,21,16,10,0.00
2009,01,21,16,11,-0.10
2009,01,21,16,12,-0.10
2009,01,21,16,13,-0.20
2009,01,21,16,14,-0.20
2009,01,21,16,15,-0.30
2009,01,21,16,16,-0.30
2009,01,21,16,17,-0.30
2009,01,21,16,18,-0.30
2009,01,21,16,19,-0.30
2009,01,21,16,20,-0.30
2009,01,21,16,21,-0.30
2009,01,21,16,22,-0.30
2009,01,21,16,23,-0.30
2009,01,21,16,24,-0.30
2009,01,21,16,25,-0.30
2009,01,21,16,26,-0.30
2009,01,21,16,27,-0.30
2009,01,21,16,28,-0.40
2009,01,21,16,29,-0.40
2009,01,21,16,30,-0.40
2009,01,21,16,31,-0.40
2009,01,21,16,32,-0.40
2009,01,21,16,33,-0.40
2009,01,21,16,34,-0.40
2009,01,21,16,35,-0.40
2009,01,21,16,36,-0.40
2009,01,21,16,37,-0.40
2009,01,21,16,38,-0.50
2009,01,21,16,39,-0.50
2009,01,21,16,40,-0.50
2009,01,21,16,41,-0.50
2009,01,21,16,42,-0.60
2009,01,21,16,43,-0.60
2009,01,21,16,44,-0.60
2009,01,21,16,45,-0.60
2009,01,21,16,46,-0.60
2009,01,21,16,47,-0.60
2009,01,21,16,48,-0.60
2009,01,21,16,49,-0.60
2009,01,21,16,50,-0.60
2009,01,21,16,51,-0.70
2009,01,21,16,52,-0.70
2009,01,21,16,53,-0.70
2009,01,21,16,54,-0.70
2009,01,21,16,55,-0.70
2009,01,21,16,56,-0.70
2009,01,21,16,57,-0.60
2009,01,21,16,58,-0.50
2009,01,21,16,59,-0.40
2009,01,21,17,00,-0.30
2009,01,21,17,01,-0.30
2009,01,21,17,02,-0.30
2009,01,21,17,03,-0.30
2009,01,21,17,04,-0.40
2009,01,21,17,05,-0.40
2009,01,21,17,06,-0.40
2009,01,21,17,07,-0.40
2009,01,21,17,08,-0.40
2009,01,21,17,09,-0.40
2009,01,21,17,10,-0.50
2009,01,21,17,11,-0.50
2009,01,21,17,12,-0.50
2009,01,21,17,13,-0.50
2009,01,21,17,14,-0.50
2009,01,21,17,15,-0.50
2009,01,21,17,16,-0.50
2009,01,21,17,17,-0.50
2009,01,21,17,18,-0.50
2009,01,21,17,19,-0.50
2009,01,21,17,20,-0.60
2009,01,21,17,21,-0.60
2009,01,21,17,22,-0.60
2009,01,21,17,23,-0.60
2009,01,21,17,24,-0.70
2009,01,21,17,25,-0.70
2009,01,21,17,26,-0.70
2009,01,21,17,27,-0.80
2009,01,21,17,28,-0.80
2009,01,21,17,29,-0.80